Location: Home AU
(51.1382°N, 13.5726°E)
Time: 23:00:28
(UTC+01:00)

ISS - Pass Details

Date: 12 January 2018
Orbit: 402 x 407 km, 51.6° (Epoch: 18 January)

Event Time Altitude Azimuth Distance (km) Brightness Sun altitude
Exits shadow 04:51:15 14° 106° (ESE) 1,238 -0.6 -29.6°
Drops below altitude 10° 04:51:48 10° 105° (ESE) 1,466 -0.2 -29.5°
Sets 04:53:53 0° 105° (ESE) 2,326 1.1 -29.1°
